#timestamp,LO_Frequency,Hit,StdDev 
1690707615.5,286047001.1,N
1690707635.4,286047001.2,N
1690707655.2,286046998.1,N
1690707675.0,286047000.8,N
1690707675.9,286047000.8,N
1690707695.8,286047001.1,N
1690707715.6,286046998.4,N
1690707735.5,286046998.2,N
1690707755.3,286046998.3,N
1690707775.1,286046998.3,N
1690707795.9,286047001.2,N
1690707815.7,286047001.0,N
1690707835.5,286047000.7,N
1690707855.4,286046998.2,N
1690707875.2,286046998.3,N
1690707895.1,286047001.1,N
1690707896.0,286047001.1,N
1690707915.8,286046998.1,N
1690707935.6,286046998.2,N
1690707955.5,286047001.0,N
1690707975.3,286047001.1,N
1690707995.2,286047000.5,N
1690708015.9,286047000.6,N
1690708035.7,286047000.4,N
1690708055.6,286046998.1,N
1690708075.4,286047000.8,N
1690708095.2,286047000.8,N
1690708115.1,286047001.2,N
1690708116.0,286047001.2,N
1690708135.8,286047001.2,N
1690708155.7,286047001.0,N
1690708175.5,286047000.7,N
1690708195.3,286046998.2,N
1690708215.2,286046998.2,N
1690708235.0,286047000.4,N
1690708235.9,286047000.4,N
1690708255.8,286047000.5,N
1690708275.6,286047001.0,N
1690708295.4,286047000.9,N
1690708315.3,286047000.7,N
1690708335.1,286047000.7,N
1690708355.8,286046998.2,N
1690708375.7,286047001.2,N
1690708395.5,286046998.6,N
1690708415.4,286047000.9,N
1690708435.2,286047000.7,N
1690708455.0,286047001.2,N
1690708455.9,286047001.2,N
1690708475.8,286047000.7,N
1690708495.6,286046998.4,N
1690708515.4,286047001.2,N
1690708535.3,286046998.3,N
1690708555.1,286046998.5,N
1690708575.9,286047000.6,N
1690708595.7,286047000.7,N
1690708615.5,286046998.3,N
1690708635.4,286047000.4,N
1690708655.2,286047000.8,N
1690708675.0,286047001.1,N
1690708675.9,286047001.1,N
1690708695.8,286047000.8,N
1690708745.6,286047000.8,E
1690708755.6,286046998.5,N
1690708775.4,286046998.3,P
1690708795.2,286046998.4,P
1690708815.1,286046998.7,Y
1690708816.0,286046998.7,P
1690708835.8,286047000.5,P
1690708855.7,286047000.7,N
1690708875.5,286047000.5,N
1690708895.3,286047000.4,N
1690708915.2,286047000.0,N
1690708935.0,286047000.6,N
1690708935.9,286047000.6,N
1690708955.7,286047000.2,N
1690708975.6,286047000.6,N
1690708995.4,286047000.0,N
1690709015.3,286046999.9,N
1690709035.1,286047000.0,N
1690709036.0,286047000.0,N
1690709055.8,286046999.8,N
1690709075.7,286047002.8,Y
1690709095.5,286047002.7,P
1690709115.4,286047000.1,N
1690709135.2,286047000.3,N
1690709155.0,286047002.8,N
1690709155.9,286047002.8,N
1690709175.8,286047000.3,N
1690709195.6,286047000.0,N
1690709215.4,286047001.0,N
1690709235.3,286046999.9,N
1690709255.1,286046999.7,N
1690709275.9,286047002.8,N
1690709295.7,286047002.2,N
1690709315.5,286047002.4,N
1690709335.4,286047002.8,N
1690709355.2,286047002.8,N
1690709375.0,286047000.0,N
1690709375.9,286047000.0,N
1690709395.8,286047000.1,N
1690709415.6,286046999.8,N
1690709435.5,286047001.0,N
1690709455.3,286046999.9,N
1690709475.1,286047000.2,N
1690709495.9,286047000.0,N
1690709515.7,286047000.2,N
1690709535.5,286047000.3,N
1690709555.4,286047002.4,N
1690709575.2,286047002.8,N
1690709595.1,286046999.9,N
1690709596.0,286046999.9,N
1690709615.8,286047000.9,N
1690709635.6,286047000.2,N
1690709655.5,286046999.8,N
1690709675.3,286046999.7,N
1690709695.2,286047002.7,N
1690709715.9,286047002.1,N
1690709735.7,286047002.8,N
1690709755.6,286047002.8,N
1690709775.4,286047002.4,N
1690709795.2,286047002.7,N
1690709815.1,286047002.8,N
1690709816.0,286047002.8,N
1690709835.8,286046999.8,N
1690709855.7,286046999.7,N
1690709875.5,286046999.8,N
1690709895.3,286046999.8,N
1690709915.2,286047002.6,N
1690709935.0,286047000.2,N
1690709935.9,286047000.2,N
1690709955.8,286047000.4,N
1690709975.6,286047000.4,N
1690709995.4,286047002.2,N
1690710015.3,286047002.2,N
1690710035.1,286047002.3,N
1690710055.8,286047002.2,N
1690710075.7,286047002.5,N
1690710095.5,286047002.7,N
1690710115.4,286047002.7,N
1690710135.2,286047002.7,N
1690710155.0,286047002.8,N
1690710155.9,286047002.8,N
1690710175.8,286047002.1,N
1690710195.6,286047002.3,N
1690710215.4,286047002.3,N
1690710235.3,286047001.5,N
1690710255.1,286047002.3,N
1690710275.9,286047002.3,N
1690710295.7,286047002.2,N
1690710315.5,286047002.1,N
1690710335.4,286047002.5,N
1690710355.2,286047002.5,N
1690710375.0,286047002.5,N
1690710376.0,286047002.5,N
1690710395.8,286047001.5,N
1690710415.6,286047001.6,N
1690710435.5,286047002.4,N
1690710455.3,286047002.7,Y
1690710475.1,286047001.2,P
1690710495.9,286047000.6,N
1690710515.7,286047000.8,N
1690710535.6,286046998.2,Y
1690710555.4,286046999.6,P
1690710575.2,286046999.0,N
1690710595.1,286046998.6,N
1690710596.0,286046998.6,N
1690710615.8,286046999.3,N
1690710635.6,286046999.1,N
1690710655.5,286046999.1,N
1690710675.3,286046999.3,N
1690710695.2,286046999.3,N
1690710715.9,286046999.1,N
1690710735.7,286046998.6,N
1690710755.6,286046998.3,N
1690710775.4,286046999.5,N
1690710795.2,286046999.4,N
1690710815.1,286046998.8,N
1690710816.0,286046998.8,N
1690710835.8,286046999.6,N
1690710855.7,286046999.4,N
1690710875.5,286046999.0,N
1690710895.3,286046998.7,N
1690710915.2,286046999.5,N
1690710935.0,286046999.1,N
1690710935.9,286046999.1,N
1690710955.8,286046999.5,N
1690710975.6,286046999.4,N
1690710995.4,286046998.4,Y
1690711015.3,286046998.6,P
1690711035.1,286046998.4,P
1690711055.9,286046998.4,P
1690711075.7,286046998.4,Y
1690711095.5,286047000.3,P
1690711115.4,286047002.7,P
1690711135.2,286047000.0,N
1690711155.0,286047000.9,N
1690711155.9,286047000.9,N
1690711175.8,286047000.6,N
1690711195.6,286047000.4,N
